Point Mugu NAWC, CA

10:47 AM PST on January 21, 2017 (GMT -0800)
Point Mugu

Weather History for KNTD - March, 2014

Change the Weather History Date:

Saturday, March 15, 2014

  Actual Average Record
Temperature  
Mean Temperature 61 °F -  
Max Temperature 72 °F 61 °F 90 °F (2015)
Min Temperature 50 °F 45 °F 37 °F (2002)
Degree Days  
Heating Degree Days 4    
Growing Degree Days 11 (Base 50)    
Moisture  
Dew Point 53 °F    
Average Humidity 74    
Maximum Humidity 90    
Minimum Humidity 52    
Precipitation  
Precipitation 0.00 in - - ()
Sea Level Pressure  
Sea Level Pressure 30.17 in    
Wind  
Wind Speed 5 mph (NW)    
Max Wind Speed 9 mph    
Max Gust Speed -    
Visibility 7 miles    
Events      
Averages and records for this station are not official NWS values.
T = Trace of Precipitation, MM = Missing Value Source: NWS Daily Summary

Daily Weather History Graph

Daily Weather History Graph

Search for Another Location

Airport or City:

Trip Planner

Search our weather history database for the weather conditions in past years. The results will help you decide how hot, cold, wet, or windy it might be!

Date:

Astronomy

Mar. 15, 2014 Rise Set
Actual Time 7:06 AM PDT 7:04 PM PDT
Civil Twilight 6:41 AM PDT 7:29 PM PDT
Nautical Twilight 6:12 AM PDT 7:58 PM PDT
Astronomical Twilight 5:43 AM PDT 8:27 PM PDT
Moon 6:28 PM PDT (3/15) 6:19 AM PDT (3/15)
Length of Visible Light 12h 47m
Length of Day
11h 57m
Waxing Gibbous, 99% of the Moon is Illuminated
Mar 15
Waxing Gibbous
Mar 16
Full
Mar 23
Last Quarter
Mar 30
New
Apr 7
First Quarter

Hourly Weather History & Observations

Time (PDT) Temp. Dew Point Humidity Pressure Visibility Wind Dir Wind Speed Gust Speed Precip Events Conditions
12:54 AM 54.0 °F 51.1 °F 90% 30.10 in - SSW 4.6 mph - N/A   Clear
1:54 AM 53.1 °F 50.0 °F 89% 30.12 in - NNE 3.5 mph - N/A   Clear
2:54 AM 54.0 °F 51.1 °F 90% 30.11 in - ENE 3.5 mph - N/A   Clear
3:54 AM 54.0 °F 50.0 °F 86% 30.11 in - NE 5.8 mph - N/A   Clear
4:54 AM 52.0 °F 48.0 °F 86% 30.12 in - NNE 6.9 mph - N/A   Clear
5:54 AM 50.0 °F 46.9 °F 89% 30.14 in - NE 4.6 mph - N/A   Clear
6:54 AM 50.0 °F 46.9 °F 89% 30.16 in 7.0 mi NNE 3.5 mph - N/A   Clear
7:54 AM 52.0 °F 46.0 °F 80% 30.18 in 7.0 mi ENE 4.6 mph - N/A   Clear
8:54 AM 59.0 °F 48.0 °F 67% 30.19 in 7.0 mi East 3.5 mph - N/A   Clear
9:54 AM 66.0 °F 55.0 °F 68% 30.20 in 7.0 mi SSW 5.8 mph - N/A   Clear
10:54 AM 68.0 °F 55.9 °F 65% 30.20 in 7.0 mi South 6.9 mph - N/A   Clear
11:54 AM 69.1 °F 57.0 °F 65% 30.20 in 7.0 mi SSW 9.2 mph - N/A   Clear
12:54 PM 69.1 °F 57.9 °F 68% 30.20 in 7.0 mi SW 9.2 mph - N/A   Clear
1:54 PM 70.0 °F 57.0 °F 63% 30.19 in 7.0 mi WSW 8.1 mph - N/A   Clear
2:54 PM 72.0 °F 57.9 °F 61% 30.18 in 7.0 mi WSW 8.1 mph - N/A   Clear
3:54 PM 71.1 °F 57.0 °F 61% 30.17 in 7.0 mi West 9.2 mph - N/A   Clear
4:54 PM 70.0 °F 57.9 °F 65% 30.16 in 7.0 mi West 9.2 mph - N/A   Clear
5:54 PM 70.0 °F 57.9 °F 65% 30.15 in 7.0 mi West 4.6 mph - N/A   Clear
6:54 PM 69.1 °F 52.0 °F 54% 30.16 in 7.0 mi NNW 4.6 mph - N/A   Clear
7:54 PM 66.9 °F 48.9 °F 52% 30.17 in 7.0 mi North 6.9 mph - N/A   Clear
8:54 PM 64.0 °F 55.9 °F 75% 30.19 in 7.0 mi NW 8.1 mph - N/A   Clear
9:54 PM 61.0 °F 55.9 °F 83% 30.20 in 7.0 mi NW 5.8 mph - N/A   Clear
10:54 PM 60.1 °F 55.0 °F 83% 30.21 in 7.0 mi Calm Calm - N/A   Clear
11:54 PM 59.0 °F 55.0 °F 87% 30.21 in 7.0 mi Calm Calm - N/A   Clear